FENGYUN 1C DEB

Satellite information

Favourite Embed

Satellite Type and Status

DEBRISIN ORBIT

Key statistics

Satellite FENGYUN 1C DEB at a glance.

Uptime

9715

Days in orbit

Revolutions

≈ 14.1

Per day

Orbit

SSO

Sun Synchronous Orbit

Inclination

98.8

Latest

Satellite identification and parameters

Extended collection of information and parameters for FENGYUN 1C DEB.

Object identification

Identified? True

Debris? True

Object name: FENGYUN 1C DEB

International designator: 1999-025CUR

Object number (NORAD): 32195

Object ID (CCSDS): 32195

Country: PEOPLES REPUBLIC OF CHINA (PRC)

Current information (Y/N): Y

RCS size: SMALL

Orbital parameters

Period: 102.241 minutes

Inclination: 98.773 deg

SMA: 7242.851 km

Apoapsis: 914.613 km

Periapsis: 814.819 km

RAAN: 340.9294 deg

Eccentricy: 0.0068891

Argument of periapsis: 324.3515 deg

Mean anomaly: 35.3064 deg

Mean motion: 14.08440247 rev/day

Mean motion (dot): 0.00001715 rev/day2

B* drag term: 0.0010039 1/REarth

Two-line elements (TLE)

Creation date: Dec. 4, 2025, 9:46 p.m.

Reference frame: TEME

Reference center: EARTH

Epoch: Dec. 4, 2025, 6:51 a.m. UTC

TLE line 0: 0 FENGYUN 1C DEB

TLE line 1: 1 32195U 99025CUR 25338.28595584 .00001715 00000-0 10039-2 0 9991

TLE line 2: 2 32195 98.7730 340.9294 0068891 324.3515 35.3064 14.08440247638633

Live tracking on map

Real-time ground track for satellite FENGYUN 1C DEB.

In-orbit conjunctions

A list of the most updated potential collisions computed for object FENGYUN 1C DEB.

Target Orbit TCA Probability of collision Miss distance Type
SL-12 R/B(AUX MOTOR) LEO 2025-01-01 22:20:54 0.0001601714 478.0 (m) ROCKET BODY
CZ-6A DEB SSO 2024-11-09 20:12:57 0.0002643585 687.0 (m) DEBRIS

Associated space launch

Chinese polar orbiting meteorological satellite

FENGYUN 1C DEB was lifted into orbit during the mission ‘Long March 4B | Feng Yun 1C’, on board a Long March 4B space rocket.

The launch took place on May 10, 1999, 1:33 a.m. from Launch Complex 7.

For more information about the launch, click the button.

Launch to space Long March 4B | Feng Yun 1C
Long March 4B | Feng Yun 1C

Agency: N/A

Status: Launch Successful

Launch date: May 10, 1999, 1:33 a.m. UTC

Rocket: Long March 4B

Launch pad: Launch Complex 7

Location: Taiyuan Satellite Launch Center, People's Republic of China

...

Latest news about this satellite

There are no fresh news available about this satellite. Check back as we update our databases every day.


Newsletter sign-up

Weekly statistics, charts and insights to help you stay on top of the space industry.